FW6992 Weather Reports


time (UTC)temp
F
wind
direction
speed
knots
gust
knots
rain 1hr
in
rain 24hr
in
rain mn
in
humidity
%
barometer
mb
20260504130719 59 130 1.7 2.6 0.00 0.00 0.00 48 1016.9
20260504130214 61 215 0.0 0.9 0.00 0.00 0.00 49 1016.8
20260504120139 55 187 0.0 0.0 0.00 0.00 0.00 60 1017.0
20260504110606 48 91 1.7 1.7 0.00 0.00 0.00 67 1017.3
20260504100528 48 108 0.0 0.9 0.00 0.00 0.00 62 1016.8
20260504081921 50 84 0.9 1.7 0.00 0.00 0.00 61 1017.1
20260504081418 50 138 0.0 1.7 0.00 0.00 0.00 61 1016.9
20260504080914 50 131 0.0 1.7 0.00 0.00 0.00 60 1017.3
20260504080411 50 168 0.0 0.9 0.00 0.00 0.00 60 1016.9
20260504070338 51 146 0.0 0.9 0.00 0.00 0.00 57 1017.0
20260504050726 52 145 0.0 0.0 0.00 0.00 0.00 50 1017.4
20260504050224 52 187 0.0 0.9 0.00 0.00 0.00 51 1017.5
20260504045721 52 171 0.0 0.0 0.00 0.00 0.00 51 1017.2
20260504045215 52 156 0.0 0.0 0.00 0.00 0.00 50 1017.1
20260504044713 52 152 0.0 0.0 0.00 0.00 0.00 50 1017.2
20260504044210 52 145 0.0 0.0 0.00 0.00 0.00 49 1017.0
20260504043707 52 137 0.0 0.9 0.00 0.00 0.00 48 1017.2
20260504043204 52 157 0.0 1.7 0.00 0.00 0.00 48 1017.1
20260504042701 52 178 0.0 0.0 0.00 0.00 0.00 48 1017.2
20260504042158 52 140 0.0 0.0 0.00 0.00 0.00 49 1017.2
20260504041653 52 162 0.0 1.7 0.00 0.00 0.00 49 1017.2
20260504041149 52 156 0.0 0.0 0.00 0.00 0.00 50 1017.1
20260504040647 52 156 0.0 0.0 0.00 0.00 0.00 49 1017.1
20260504040144 52 134 0.0 0.9 0.00 0.00 0.00 49 1017.2
20260504035640 53 146 0.9 1.7 0.00 0.00 0.00 51 1016.9
20260504035137 53 130 1.7 1.7 0.00 0.00 0.00 47 1017.1
20260504034635 53 145 0.0 0.0 0.00 0.00 0.00 47 1017.1
20260504034132 53 156 0.0 0.0 0.00 0.00 0.00 47 1016.8
20260504033629 53 134 0.0 0.0 0.00 0.00 0.00 47 1016.9
20260504033127 53 168 0.0 0.0 0.00 0.00 0.00 47 1016.9
20260504032623 52 176 0.0 0.9 0.00 0.00 0.00 47 1017.0
20260504032120 52 162 0.0 0.0 0.00 0.00 0.00 46 1016.8
20260504031618 52 152 0.0 0.9 0.00 0.00 0.00 47 1016.9
20260504031114 52 151 0.0 1.7 0.00 0.00 0.00 47 1017.0
20260504030611 52 181 0.0 0.0 0.00 0.00 0.00 47 1017.1
20260504030107 53 151 0.0 0.9 0.00 0.00 0.00 48 1016.9
20260504025604 53 170 0.9 1.7 0.00 0.00 0.00 48 1017.1
20260504025101 53 145 0.0 0.0 0.00 0.00 0.00 46 1017.0
20260504024558 53 54 0.0 0.9 0.00 0.00 0.00 47 1016.9
20260504024055 52 149 0.9 0.9 0.00 0.00 0.00 47 1017.1
20260504023551 52 134 0.0 0.0 0.00 0.00 0.00 49 1016.9
20260504023047 52 156 0.0 0.0 0.00 0.00 0.00 48 1016.8
20260504022543 52 156 0.0 0.0 0.00 0.00 0.00 46 1016.7
20260504022040 52 156 0.0 0.0 0.00 0.00 0.00 46 1016.8
20260504021538 52 156 0.0 0.0 0.00 0.00 0.00 47 1016.8
20260504021035 52 156 0.0 0.0 0.00 0.00 0.00 46 1016.7
20260504020532 52 156 0.0 0.9 0.00 0.00 0.00 46 1016.7
20260504020028 52 133 0.9 0.9 0.00 0.00 0.00 46 1016.4
20260504015524 52 142 0.0 0.9 0.00 0.00 0.00 45 1016.4
20260504015020 52 145 0.0 0.0 0.00 0.00 0.00 44 1016.3
20260504014516 53 156 0.0 0.0 0.00 0.00 0.00 44 1016.2
20260504014014 53 145 0.0 0.0 0.00 0.00 0.00 43 1016.3
20260504013512 53 166 0.0 0.0 0.00 0.00 0.00 43 1016.2
20260504013008 53 168 0.0 0.0 0.00 0.00 0.00 43 1016.1
20260504012506 53 168 0.0 0.0 0.00 0.00 0.00 42 1016.1
20260504012003 54 137 0.0 0.0 0.00 0.00 0.00 43 1016.1
20260504011459 54 162 0.0 0.0 0.00 0.00 0.00 42 1015.9
20260504010955 54 150 0.0 0.9 0.00 0.00 0.00 41 1016.3
20260504010452 54 233 0.0 0.0 0.00 0.00 0.00 39 1016.1
20260504005947 55 233 0.0 0.0 0.00 0.00 0.00 39 1016.1
20260504005445 55 233 0.0 0.0 0.00 0.00 0.00 38 1016.1
20260504004942 55 245 0.0 0.0 0.00 0.00 0.00 37 1016.0
20260504004439 56 245 0.0 0.0 0.00 0.00 0.00 37 1016.0
20260504003937 56 245 0.0 0.0 0.00 0.00 0.00 37 1016.0
20260504003433 56 150 0.0 0.0 0.00 0.00 0.00 36 1015.8
20260504002929 57 168 0.0 0.0 0.00 0.00 0.00 35 1015.8
20260504002426 57 168 0.0 0.0 0.00 0.00 0.00 35 1016.1
20260504001924 57 347 0.0 0.0 0.00 0.00 0.00 34 1015.8
20260504001421 57 347 0.0 0.0 0.00 0.00 0.00 34 1015.8
20260504000918 58 347 0.0 0.0 0.00 0.00 0.00 34 1015.9
20260504000416 58 347 0.0 0.0 0.00 0.00 0.00 33 1015.9
20260503235912 59 347 0.0 0.0 0.00 0.00 0.00 31 1015.9
20260503235410 59 163 0.0 0.9 0.00 0.00 0.00 30 1015.7
20260503234908 59 76 0.0 0.9 0.00 0.00 0.00 30 1015.7
20260503234405 59 336 0.0 1.7 0.00 0.00 0.00 29 1015.6
20260503233902 60 201 0.0 0.0 0.00 0.00 0.00 29 1015.9
20260503233359 60 343 0.0 0.0 0.00 0.00 0.00 28 1015.5
20260503232855 61 233 0.0 0.9 0.00 0.00 0.00 28 1015.7
20260503232352 61 87 0.0 0.0 0.00 0.00 0.00 28 1015.5
20260503231850 61 124 0.0 0.9 0.00 0.00 0.00 27 1015.5
20260503231347 62 76 0.9 0.9 0.00 0.00 0.00 26 1015.6
20260503230843 62 330 0.0 1.7 0.00 0.00 0.00 27 1015.8
20260503230341 62 321 0.0 1.7 0.00 0.00 0.00 24 1015.5
20260503225839 63 210 0.0 1.7 0.00 0.00 0.00 23 1015.8
20260503225334 63 290 0.0 1.7 0.00 0.00 0.00 23 1015.4
20260503224830 63 330 0.0 1.7 0.00 0.00 0.00 26 1015.5
20260503224327 63 106 0.0 0.9 0.00 0.00 0.00 27 1015.5
20260503223825 63 224 0.0 0.0 0.00 0.00 0.00 24 1015.4
20260503223322 63 71 1.7 2.6 0.00 0.00 0.00 23 1015.4
20260503222818 64 185 0.0 1.7 0.00 0.00 0.00 25 1015.5
20260503222317 64 296 0.0 1.7 0.00 0.00 0.00 22 1015.5
20260503221814 64 311 0.0 0.0 0.00 0.00 0.00 22 1015.5
20260503221313 65 237 1.7 1.7 0.00 0.00 0.00 22 1015.7
20260503220808 65 193 1.7 1.7 0.00 0.00 0.00 27 1015.7
20260503220305 65 216 0.9 1.7 0.00 0.00 0.00 21 1015.8
20260503215802 65 213 0.0 1.7 0.00 0.00 0.00 25 1015.8
20260503215259 65 92 0.9 1.7 0.00 0.00 0.00 23 1015.7
20260503214757 66 64 0.0 0.9 0.00 0.00 0.00 21 1015.8
20260503214254 66 144 0.0 1.7 0.00 0.00 0.00 22 1015.9
20260503213752 65 109 0.9 2.6 0.00 0.00 0.00 21 1015.7
20260503213249 65 207 1.7 2.6 0.00 0.00 0.00 21 1015.5
20260503212745 65 179 2.6 2.6 0.00 0.00 0.00 26 1015.6
20260503212243 65 152 1.7 1.7 0.00 0.00 0.00 25 1015.8
20260503211741 65 199 0.9 1.7 0.00 0.00 0.00 24 1015.8
20260503211237 65 267 0.0 3.5 0.00 0.00 0.00 21 1015.8
20260503210732 66 324 1.7 2.6 0.00 0.00 0.00 24 1016.0
20260503210230 67 185 0.0 1.7 0.00 0.00 0.00 23 1016.0
20260503205725 66 290 0.0 1.7 0.00 0.00 0.00 22 1015.9
20260503205221 66 223 0.0 1.7 0.00 0.00 0.00 28 1016.0
20260503204718 66 335 0.9 1.7 0.00 0.00 0.00 23 1016.1
20260503204216 66 162 0.0 1.7 0.00 0.00 0.00 25 1016.1
20260503203713 68 324 0.9 2.6 0.00 0.00 0.00 21 1016.1
20260503203210 67 211 1.7 2.6 0.00 0.00 0.00 22 1016.3
20260503202708 66 219 0.9 1.7 0.00 0.00 0.00 26 1016.2
20260503202205 67 179 0.9 0.9 0.00 0.00 0.00 24 1016.3
20260503201703 67 67 0.0 3.5 0.00 0.00 0.00 21 1016.4
20260503201200 69 263 0.0 2.6 0.00 0.00 0.00 23 1016.5
20260503200656 67 310 1.7 5.2 0.00 0.00 0.00 23 1016.4
20260503200154 67 192 0.9 1.7 0.00 0.00 0.00 25 1016.8
20260503195650 66 174 0.0 2.6 0.00 0.00 0.00 26 1016.8
20260503195147 64 101 0.0 5.2 0.00 0.00 0.00 24 1016.7
20260503194644 67 172 0.0 3.5 0.00 0.00 0.00 22 1016.8
20260503194140 68 173 1.7 5.2 0.00 0.00 0.00 20 1016.7
20260503193637 68 330 0.0 1.7 0.00 0.00 0.00 21 1017.0
20260503193132 67 93 1.7 2.6 0.00 0.00 0.00 21 1017.1
20260503192628 66 130 0.0 2.6 0.00 0.00 0.00 23 1017.2
20260503192124 67 187 0.9 0.9 0.00 0.00 0.00 22 1017.3
20260503191621 67 314 1.7 1.7 0.00 0.00 0.00 23 1017.4
20260503191118 66 281 0.9 3.5 0.00 0.00 0.00 29 1017.5
20260503190615 67 63 0.0 2.6 0.00 0.00 0.00 25 1017.6
20260503190112 66 230 1.7 3.5 0.00 0.00 0.00 22 1017.7
20260503185609 66 261 1.7 2.6 0.00 0.00 0.00 23 1017.7
20260503185108 65 302 0.0 2.6 0.00 0.00 0.00 23 1017.9
20260503184603 65 83 1.7 2.6 0.00 0.00 0.00 27 1017.6
20260503184100 65 312 2.6 3.5 0.00 0.00 0.00 24 1017.8
20260503183557 64 76 0.0 3.5 0.00 0.00 0.00 24 1018.0
20260503183054 63 295 4.3 8.7 0.00 0.00 0.00 26 1018.1
20260503182552 65 308 1.7 3.5 0.00 0.00 0.00 24 1018.3
20260503182050 64 205 1.7 2.6 0.00 0.00 0.00 27 1018.4
20260503181547 63 247 0.9 1.7 0.00 0.00 0.00 28 1018.2
20260503181043 61 102 0.9 1.7 0.00 0.00 0.00 25 1018.2
20260503180541 62 101 0.9 3.5 0.00 0.00 0.00 27 1018.3
20260503180039 63 224 1.7 2.6 0.00 0.00 0.00 25 1018.5
20260503175536 63 209 0.0 3.5 0.00 0.00 0.00 26 1018.5
20260503175033 62 199 2.6 3.5 0.00 0.00 0.00 26 1018.7
20260503174530 61 74 0.0 3.5 0.00 0.00 0.00 29 1018.6
20260503174026 63 212 0.9 2.6 0.00 0.00 0.00 26 1018.5
20260503173520 62 251 0.0 2.6 0.00 0.00 0.00 36 1018.6
20260503173017 62 170 0.0 2.6 0.00 0.00 0.00 32 1018.7
20260503172515 62 288 0.9 1.7 0.00 0.00 0.00 28 1018.8
20260503172012 60 45 0.9 2.6 0.00 0.00 0.00 26 1018.9
20260503171508 60 257 0.9 1.7 0.00 0.00 0.00 30 1018.7
20260503171006 60 186 1.7 3.5 0.00 0.00 0.00 28 1019.1
20260503170502 60 185 1.7 4.3 0.00 0.00 0.00 26 1019.0
20260503150854 55 239 1.7 2.6 0.00 0.00 0.00 32 1020.1
20260503150350 56 190 1.7 3.5 0.00 0.00 0.00 32 1020.4
20260503140315 53 92 1.7 4.3 0.00 0.00 0.00 33 1020.1